Regional Weather Roundup
Issued by NWS

Home | Current Version | Previous Version | Graphics & Text | Print | Product List | Glossary On
Versions: 1 2 3 4 5 6 7 8 9 10 11 12 13 14 15 16 17 18 19 20 21 22 23 24 25 26 27 28 29 30 31 32 33 34 35 36 37 38 39 40 41 42 43 44 45 46 47 48 49 50
000
ASUS43 KOAX 270802
RWRNE

WEATHER ROUNDUP FOR NEBRASKA
NATIONAL WEATHER SERVICE OMAHA NE
200 AM CST TUE JAN 27 2015

NOTES: SATELLITE DATA IS BEING USED TO AUGMENT CLOUD COVER ABOVE
       12000 FEET.
       "FAIR" INDICATES FEW OR NO CLOUDS BELOW 12,000 FEET WITH NO
       SIGNIFICANT WEATHER AND/OR OBSTRUCTIONS TO VISIBILITY.

  * THESE STATIONS DO NOT REPORT WEATHER SUCH AS RAIN...SNOW OR FOG.

NEZ001>004-019>022-054>056-270900-
NEBRASKA PANHANDLE

CITY           SKY/WX    TMP DP  RH WIND       PRES   REMARKS
SCOTTSBLUFF    CLEAR     36  28  73 NW7       30.09F WCI  30
ALLIANCE       CLEAR     33  28  81 SW8       30.07S WCI  26
CHADRON        CLEAR     37  28  70 SW3       30.04F
SIDNEY         CLEAR     33  26  75 W6        30.11F WCI  28
$$

NEZ057>060-069>072-079>082-270900-
SOUTHWEST NEBRASKA

CITY           SKY/WX    TMP DP  RH WIND       PRES   REMARKS
NORTH PLATTE   PTCLDY    27  24  89 W3        30.07F
IMPERIAL       PTCLDY    37  27  67 NW3       30.09S
LEXINGTON      CLEAR     29  25  87 CALM      30.06F
MCCOOK         CLEAR     35  29  78 SW9       30.08S WCI  28
$$

NEZ005>010-023>029-035>040-094-270900-
NORTH CENTRAL NEBRASKA

CITY           SKY/WX    TMP DP  RH WIND       PRES   REMARKS
VALENTINE      CLEAR     29  27  92 W6        30.01F WCI  23
BROKEN BOW     CLEAR     29  25  85 CALM      30.05F
ORD            CLEAR     26  23  88 CALM      30.05F
$$

NEZ041-046>049-061>064-073>077-083>087-270900-
SOUTH CENTRAL NEBRASKA

CITY           SKY/WX    TMP DP  RH WIND       PRES   REMARKS
GRAND ISLAND   CLEAR     28  24  85 SW6       30.08S WCI  22
AURORA         PTCLDY    31  28  88 N3        30.08R
HASTINGS       CLEAR     33  26  75 CALM      30.07S
KEARNEY *      CLEAR     30  23  74 CALM      30.07S
$$

NEZ011>018-030>034-042>045-270900-
NORTHEAST NEBRASKA

CITY           SKY/WX    TMP DP  RH WIND       PRES   REMARKS
NORFOLK        CLEAR     31  28  89 CALM      30.06S
ALBION         CLEAR     27  23  86 CALM      30.07F
COLUMBUS *     CLEAR     27  19  74 CALM      30.09R
FREMONT        CLEAR     33  30  90 CALM      30.07S
TEKAMAH        CLEAR     32  28  85 NW7       30.07R WCI  26
$$

NEZ050>053-065>068-078-088>093-270900-
SOUTHEAST NEBRASKA

CITY           SKY/WX    TMP DP  RH WIND       PRES   REMARKS
LINCOLN        PTCLDY    28  23  81 CALM      30.09R
OMAHA EPPLEY   CLEAR     33  31  92 N6        30.07R WCI  28
FALLS CITY     CLEAR     35  28  75 NW5       30.06S WCI  31
$$

NEZ044-045-051>053-067-270900-
OMAHA AREA

CITY           SKY/WX    TMP DP  RH WIND       PRES   REMARKS
OMAHA EPPLEY   CLEAR     33  31  92 N6        30.07R WCI  28
FREMONT        CLEAR     33  30  90 CALM      30.07S
OFFUTT AFB     CLEAR     32  29  89 NW5       30.06S WCI  27
$$



USA.gov is the U.S. government's official web portal to all federal, state and local government web resources and services.